Retour au catalogue

DELTA 1 DEB

ActifSSO
NORAD 21374·DEBRIS·🇺🇸 United States

Lancé Jun 12, 1975 depuis Vandenberg Space Force Base

Loading…

Prochains Passages (prochaines 24 heures)

TLE

FraisSource: Space-Track

Époque: Sep 14, 2026, 01:08 UTC

1 21374U 75052CU  26257.04754170  .00000471  00000-0  53408-3 0  9991
2 21374  99.8663 103.2633 0257309  64.9688  85.6807 13.62220439745872

Suivez DELTA 1 DEB en temps réel avec AllMySat

Download on the App Store